Vorticity
21 18 17 16 15 14 13 11 10 10 10 12 14 11 4 -3 0 11 20 16 7 9 11 6 6 6 9 14 7 -4 -5 -1 8 18 15 6 6 7 4 3 6 8 8 8 8 8 9 11 12 12 14 15 14 12 12 11 10 10 11 11 11 9 8 7 7 7 7 8 8 8 8 8 9 10
28 26 23 21 18 15 14 12 10 10 10 10 10 13 13 7 -0 -4 6 16 11 6 8 5 4 6 7 11 13 7 -1 -7 -10 1 18 18 9 8 7 4 2 4 6 7 8 7 7 10 10 6 6 10 13 12 12 12 12 12 13 14 14 14 13 12 10 9 9 8 8 8 9 10 10 9
33 32 28 24 21 19 17 15 12 9 9 10 9 9 11 12 12 4 -1 6 11 8 7 6 4 4 4 7 12 10 6 4 -7 -17 -4 17 22 16 11 8 6 4 3 4 6 8 8 10 11 8 4 4 6 7 7 8 10 10 11 12 14 15 16 17 16 16 16 16 16 17 17 17 16 15
32 32 31 27 24 21 18 17 16 14 10 9 9 9 9 9 10 12 9 7 10 12 10 8 8 7 4 3 9 11 6 8 11 -2 -17 -9 13 23 17 8 4 4 4 4 6 7 7 6 5 5 4 3 4 6 5 4 5 7 9 10 11 11 13 14 15 15 16 17 17 18 18 17 17 18
30 29 30 29 27 24 21 17 15 14 13 11 10 8 9 9 7 7 9 10 11 14 14 11 9 10 8 4 4 9 9 5 10 15 3 -11 -7 11 24 25 16 8 2 0 3 7 9 7 3 3 6 6 5 6 4 3 3 5 7 8 9 9 9 9 9 9 9 9 9 8 8 8 9 10
27 28 30 32 32 32 31 27 21 17 13 11 11 10 9 10 10 7 6 8 8 10 13 14 12 10 10 10 5 3 8 8 6 10 14 6 -5 -8 4 22 31 29 22 13 8 8 8 5 0 1 4 6 6 7 6 4 4 6 7 7 6 7 7 6 6 5 5 5 6 5 5 6 5 6
18 22 26 29 32 35 38 37 35 31 25 18 12 10 9 8 9 10 8 7 6 5 7 10 12 11 10 12 12 6 3 6 7 6 7 9 6 -4 -10 -5 7 19 27 28 24 20 17 11 5 3 3 4 4 5 6 6 7 9 9 8 5 4 5 5 4 4 4 3 4 4 4 5 5 5
13 13 15 16 17 21 27 32 36 38 36 32 25 18 14 10 8 9 9 9 7 4 3 4 7 9 8 8 11 12 9 6 5 6 5 4 3 2 -3 -7 -8 -4 4 9 12 14 15 14 12 10 10 11 9 7 6 6 7 9 10 10 8 6 4 4 4 4 5 4 3 2 2 2 3 3
15 14 12 11 9 9 10 13 20 28 32 35 36 32 26 21 16 13 12 12 11 8 5 3 3 4 6 6 5 7 11 10 8 6 6 5 3 0 -1 -1 -4 -5 -3 -1 -0 1 3 5 6 6 6 8 10 11 10 9 8 8 8 7 7 7 6 6 7 7 7 6 5 5 4 2 2 3
17 17 16 15 15 13 13 12 11 15 20 24 30 33 35 33 29 24 19 16 15 13 10 7 5 4 4 4 4 4 5 7 9 8 7 7 6 3 0 -0 -1 -2 -1 0 -0 -0 2 3 4 5 5 6 6 8 9 9 9 8 7 7 6 6 6 6 7 7 6 7 6 6 7 5 5 4
16 16 16 16 18 18 19 20 18 17 17 18 20 24 28 31 33 32 29 25 21 18 16 13 10 7 6 5 4 4 4 4 5 6 6 6 7 6 4 0 -1 -0 2 5 5 4 2 3 5 5 5 5 4 4 5 5 6 7 8 8 7 7 7 6 6 6 5 6 6 7 7 6 6 5
14 14 15 15 15 16 17 17 18 18 19 20 21 21 23 25 29 32 33 33 31 27 24 22 18 14 11 8 6 5 5 6 5 5 5 6 6 7 9 7 5 3 2 5 9 10 6 3 4 4 4 4 3 2 3 4 5 6 7 8 7 7 8 8 7 7 6 7 7 7 7 6 6 6
12 12 13 13 13 13 14 14 14 14 14 15 16 17 19 21 24 28 32 34 36 35 31 29 28 25 21 16 12 8 5 6 8 8 8 8 7 6 7 9 9 8 7 8 12 17 17 12 8 5 3 4 4 3 3 3 4 6 7 8 9 8 8 8 7 7 6 6 7 7 7 8 8 8
12 12 11 11 12 12 12 13 14 14 13 13 13 12 12 13 16 19 24 27 31 34 35 33 32 31 30 29 25 20 14 10 11 12 10 10 11 10 8 7 7 8 9 11 12 14 17 18 17 14 10 7 5 4 4 4 4 4 5 6 7 6 6 5 5 5 5 5 5 6 6 7 7 8
12 13 12 10 11 11 11 10 10 11 12 11 12 12 10 10 11 11 14 17 21 27 32 34 35 33 30 31 32 30 26 19 14 13 14 14 14 14 13 11 11 12 11 12 11 7 7 10 14 16 16 14 11 9 8 8 7 6 5 6 6 6 4 3 3 4 4 5 4 5 5 5 6 6
14 14 14 14 14 14 14 14 14 14 14 14 13 14 12 11 10 9 9 9 11 16 20 26 32 36 36 35 35 35 34 30 24 19 15 13 13 14 16 15 13 12 11 10 11 11 12 12 11 10 11 11 12 12 11 10 10 9 8 7 6 5 4 4 5 5 6 6 6 5 5 5 5 5
20 19 19 18 18 18 18 18 18 17 18 18 18 17 17 17 16 15 13 10 8 7 8 12 18 25 31 34 36 38 39 36 32 26 20 15 13 11 12 14 13 10 7 6 6 8 12 14 13 11 10 8 7 7 9 8 7 6 6 5 5 6 6 6 6 6 7 7 6 6 6 5 4 4
13 12 11 10 8 9 9 9 9 10 10 12 14 15 16 17 19 20 20 19 18 14 10 8 8 10 15 20 24 28 32 34 32 28 24 19 16 13 11 10 9 7 6 5 5 5 7 9 11 10 10 12 9 6 5 5 4 3 3 4 5 6 7 6 6 6 7 7 7 7 6 5 4 4
4 3 3 3 3 3 3 3 3 4 4 4 6 7 9 10 12 15 17 20 22 23 22 18 13 9 8 10 13 16 20 26 30 31 28 21 15 13 10 8 8 9 8 7 8 7 7 9 13 11 8 9 11 9 7 5 5 5 5 6 7 7 6 6 6 6 6 7 7 7 5 5 5 4
2 3 3 4 4 4 4 4 3 3 3 4 4 3 4 6 7 9 11 13 15 19 23 26 25 20 13 8 8 10 13 18 22 27 31 29 24 19 14 10 9 11 12 11 9 8 7 8 12 14 10 7 6 6 6 8 9 8 7 7 9 9 8 8 8 8 8 8 7 6 5 5 6 7
5 6 6 6 7 8 9 9 10 9 8 7 8 7 6 5 5 6 8 9 12 14 18 23 26 28 25 19 11 7 8 11 13 16 21 27 31 31 28 23 17 13 12 12 10 10 9 6 6 10 11 8 3 -0 -0 3 6 7 7 7 6 6 7 9 9 9 9 8 8 7 7 7 8 9
9 10 10 10 9 9 10 10 11 12 11 10 9 10 10 9 7 8 9 10 10 10 14 20 25 27 29 28 24 18 12 10 10 12 14 18 22 27 31 34 32 27 21 17 12 10 10 9 8 7 7 7 5 2 0 1 2 3 4 4 4 4 5 6 8 9 9 9 7 7 9 9 9 9
12 12 12 11 12 14 15 15 14 14 14 14 14 13 13 13 13 12 11 12 11 8 10 17 24 28 27 26 26 24 21 18 16 15 16 15 15 17 20 25 29 34 36 34 30 24 19 16 14 11 8 8 7 6 5 3 3 3 3 3 4 5 6 7 8 7 8 8 9 10 10 10 10 10
11 9 9 12 19 23 24 26 27 24 20 19 21 22 19 17 18 17 14 13 12 9 8 11 16 24 28 28 28 27 25 23 20 17 17 16 15 15 14 14 15 19 24 30 35 37 34 30 26 21 16 13 11 9 9 7 6 5 5 5 4 4 6 8 9 7 5 4 4 6 8 9 10 11
10 7 12 22 29 31 30 32 35 31 26 23 22 24 26 25 22 18 14 13 12 8 5 6 9 13 19 25 30 33 34 33 29 25 22 20 18 16 15 15 15 13 13 12 16 22 27 30 34 34 31 28 24 19 16 14 12 10 9 9 9 9 8 7 7 7 6 4 3 2 3 5 6 6
8 8 23 36 39 36 32 36 43 37 28 25 20 20 27 28 24 19 14 12 12 7 3 2 3 5 7 9 12 15 19 24 28 29 29 28 26 24 21 18 16 14 12 11 10 12 13 15 19 25 29 33 36 35 32 29 27 23 20 18 15 15 15 14 13 12 10 9 9 7 6 5 4 3
5 14 37 46 44 40 33 34 43 38 23 17 17 19 25 29 27 23 16 12 11 8 4 3 4 5 6 6 6 8 9 12 15 17 20 23 24 27 29 30 27 23 18 14 11 10 11 11 10 11 14 17 22 28 32 34 35 35 33 29 24 19 16 15 16 18 18 17 16 14 13 11 8 6
6 17 37 40 35 42 42 33 32 31 23 19 19 21 26 29 28 25 18 14 11 7 3 4 7 9 9 8 8 10 9 8 7 6 7 9 11 15 19 24 30 33 32 29 23 16 13 12 10 9 10 9 8 10 13 17 21 24 26 28 29 27 23 18 14 13 15 18 20 20 19 19 17 14
7 13 31 35 27 33 45 41 32 26 24 23 23 26 29 29 28 27 21 13 7 2 2 8 11 12 11 9 7 6 4 4 5 6 6 7 8 8 8 10 14 20 26 31 33 30 25 21 16 13 12 11 9 8 8 8 10 12 15 18 22 25 27 27 24 19 15 14 17 19 19 18 18 18
9 7 18 31 29 27 33 39 39 35 31 29 30 33 33 28 24 22 16 8 3 3 7 11 11 9 7 7 7 7 9 11 14 15 16 16 16 16 15 13 11 11 13 18 24 29 31 30 27 23 20 18 16 14 13 12 11 11 11 12 14 16 18 21 23 24 21 18 16 18 22 22 19 17
11 8 8 16 25 28 28 29 32 33 32 33 33 31 28 23 19 15 10 5 5 8 11 11 11 11 11 12 14 15 17 19 19 19 21 21 22 25 27 28 25 19 14 11 12 17 22 25 28 29 28 26 23 21 19 18 17 16 15 14 13 14 14 15 16 19 21 20 17 15 19 25 28 26
8 10 8 6 9 16 22 24 25 24 23 24 24 22 19 18 15 12 11 12 14 15 16 15 15 15 13 13 13 13 12 10 7 7 8 10 12 16 21 29 35 34 28 23 21 23 25 27 30 33 35 34 32 30 28 26 24 22 21 18 16 15 14 14 16 16 18 21 21 18 14 16 21 26
10 10 11 10 7 6 9 13 16 18 19 19 19 19 18 18 17 17 17 18 18 16 14 12 10 8 6 6 5 4 3 3 3 3 4 7 10 11 11 15 22 28 30 29 28 28 27 26 25 26 26 24 23 21 21 21 20 20 20 20 19 18 17 16 16 16 17 19 22 24 21 17 15 16
15 12 11 10 11 10 8 7 7 8 9 10 11 11 11 10 10 10 8 8 7 5 4 4 4 5 6 6 7 9 12 15 18 19 17 16 16 14 12 9 8 10 13 15 15 16 15 13 11 10 9 10 13 16 19 21 22 23 24 25 25 23 22 19 17 17 17 17 18 21 24 25 22 19
14 15 15 12 11 12 12 11 11 9 7 7 7 6 6 6 5 4 4 5 5 6 7 9 11 13 15 17 19 21 22 22 24 26 26 26 25 23 21 18 16 15 14 13 14 13 13 13 12 12 14 16 17 17 17 16 17 17 20 23 26 26 26 25 23 21 21 20 20 19 20 23 25 26
12 12 13 12 12 12 12 12 12 12 12 12 12 11 12 12 12 12 13 13 13 14 15 16 17 18 19 20 20 20 19 18 17 16 15 16 18 19 20 20 20 20 19 17 17 17 16 17 17 16 17 17 15 14 14 15 17 19 21 24 26 27 27 26 26 26 26 25 25 24 23 22 23 25
15 14 14 13 13 14 14 14 14 13 13 13 14 14 14 14 14 15 16 16 17 17 16 15 16 16 16 17 16 16 16 15 13 11 9 7 7 7 8 9 11 12 13 13 14 15 15 15 15 15 15 16 17 18 18 17 16 15 16 18 20 22 23 23 23 25 27 28 27 27 26 24 21 21
12 13 13 14 13 13 14 14 14 15 15 14 14 14 14 14 14 15 16 17 18 17 16 15 15 15 15 16 17 17 17 17 16 16 14 13 12 11 11 11 12 12 12 12 11 12 14 15 16 16 15 15 15 14 11 9 9 10 12 15 16 15 15 14 14 17 22 24 23 19 17 18 15 12
12 11 10 12 11 11 12 13 13 14 14 14 14 13 13 13 14 13 14 14 14 14 15 14 14 13 12 12 12 12 13 14 15 15 15 15 15 14 14 14 14 13 13 13 13 13 13 14 15 16 16 16 16 15 14 13 14 16 17 17 15 13 10 9 8 9 13 18 19 15 11 10 7 3
9 9 9 11 10 10 11 11 12 13 13 13 13 13 11 12 12 11 11 11 10 10 10 9 9 9 8 8 8 8 8 8 8 8 9 10 10 11 11 11 11 11 11 11 11 11 11 10 11 12 13 13 13 13 13 12 12 12 12 12 12 12 11 10 9 8 8 11 15 15 13 11 7 4
7 6 7 7 7 7 8 7 8 9 9 9 10 10 9 10 11 10 11 10 10 10 10 9 9 9 8 8 8 7 7 7 7 6 7 6 7 7 8 7 8 8 8 7 8 8 8 9 9 10 10 10 10 10 10 9 9 10 10 9 9 9 9 10 10 9 8 8 10 10 10 10 9 7
9 9 9 9 9 8 8 7 8 8 8 8 8 8 9 10 10 10 11 11 12 12 11 11 11 11 10 11 10 9 9 9 8 8 8 7 7 7 6 7 7 7 6 6 6 6 6 6 7 7 7 7 7 7 7 6 7 7 8 8 8 7 6 7 7 7 7 8 9 8 7 9 10 8
10 10 10 11 12 12 11 12 12 11 11 10 10 10 11 11 11 11 11 11 11 11 11 12 12 12 12 12 11 11 12 12 11 12 11 10 10 9 8 8 7 6 6 6 5 4 4 3 3 3 4 4 4 4 3 4 5 5 5 6 7 6 6 6 6 5 4 4 6 7 6 7 8 7
13 12 12 13 14 14 14 14 14 13 12 12 11 12 12 12 11 11 11 11 12 11 12 12 13 12 13 13 13 13 14 13 13 13 12 11 12 11 10 10 9 8 8 7 6 6 5 5 4 4 3 3 3 3 3 3 3 3 3 4 4 5 6 6 6 4 2 1 2 4 4 4 5 5
17 16 17 18 17 16 15 14 12 11 11 11 11 11 11 11 11 11 11 12 12 12 13 13 13 13 14 13 13 14 14 14 14 13 13 13 13 12 12 12 11 11 10 10 10 10 10 9 10 10 9 8 8 8 8 8 7 7 8 8 7 7 8 8 8 8 7 6 6 7 6 5 5 5
Height
5320 5328 5336 5342 5349 5356 5362 5369 5375 5382 5388 5394 5400 5406 5410 5416 5421 5424 5430 5442 5455 5462 5465 5470 5476 5479 5482 5486 5490 5494 5499 5504 5507 5508 5511 5515 5520 5523 5526 5529 5533 5537 5543 5547 5551 5554 5557 5561 5563 5566 5570 5574 5578 5581 5584 5587 5590 5592 5594 5598 5602 5606 5608 5610 5613 5616 5619 5623 5626 5630 5633 5636 5640 5642
5312 5319 5326 5331 5338 5345 5352 5359 5365 5371 5377 5383 5389 5395 5400 5404 5409 5414 5420 5431 5443 5449 5453 5460 5466 5469 5472 5475 5479 5484 5490 5494 5497 5500 5502 5506 5511 5514 5517 5520 5523 5527 5532 5538 5543 5546 5549 5552 5555 5558 5561 5565 5570 5573 5576 5579 5581 5583 5585 5589 5593 5596 5599 5602 5605 5607 5611 5614 5618 5621 5625 5628 5631 5632
5304 5310 5315 5321 5328 5335 5342 5349 5355 5361 5367 5373 5379 5385 5389 5393 5398 5404 5410 5420 5431 5438 5444 5451 5455 5458 5461 5464 5469 5475 5480 5485 5488 5491 5495 5498 5501 5504 5507 5511 5515 5519 5523 5529 5534 5537 5541 5543 5546 5549 5553 5556 5560 5565 5568 5571 5573 5575 5577 5581 5584 5588 5591 5594 5596 5599 5602 5606 5610 5613 5616 5619 5621 5622
5296 5301 5305 5311 5318 5325 5331 5339 5345 5352 5357 5363 5369 5374 5379 5383 5388 5394 5399 5409 5421 5429 5434 5440 5444 5448 5452 5455 5460 5466 5471 5475 5479 5483 5486 5489 5492 5495 5498 5502 5506 5510 5515 5520 5525 5528 5532 5535 5537 5541 5545 5548 5551 5556 5560 5563 5565 5568 5570 5573 5576 5580 5583 5585 5588 5591 5594 5598 5602 5605 5607 5610 5611 5612
5290 5294 5298 5303 5309 5315 5322 5329 5335 5342 5348 5353 5359 5364 5368 5373 5379 5385 5391 5401 5413 5419 5424 5429 5434 5437 5442 5446 5452 5457 5461 5464 5469 5473 5476 5480 5483 5486 5490 5493 5496 5500 5505 5510 5515 5519 5522 5526 5529 5532 5536 5539 5542 5546 5550 5554 5557 5560 5563 5565 5568 5572 5575 5577 5580 5583 5586 5589 5593 5596 5598 5601 5603 5605
5285 5289 5293 5298 5303 5307 5314 5320 5326 5332 5339 5344 5349 5354 5358 5363 5369 5376 5382 5391 5402 5408 5413 5419 5423 5426 5431 5436 5442 5447 5450 5454 5457 5461 5465 5469 5473 5477 5480 5483 5487 5491 5495 5500 5504 5509 5513 5516 5520 5523 5527 5531 5534 5537 5540 5545 5548 5551 5554 5557 5560 5563 5566 5569 5572 5574 5578 5581 5584 5587 5590 5592 5595 5597
5280 5284 5289 5294 5298 5301 5307 5312 5317 5323 5329 5334 5339 5344 5349 5354 5359 5365 5372 5380 5389 5396 5401 5407 5412 5415 5419 5425 5431 5435 5439 5442 5445 5450 5455 5459 5462 5467 5471 5474 5478 5481 5485 5489 5494 5498 5503 5507 5510 5514 5518 5521 5524 5527 5531 5536 5539 5542 5545 5549 5551 5554 5557 5560 5563 5566 5569 5573 5576 5579 5581 5584 5587 5589
5276 5280 5285 5289 5292 5295 5300 5305 5309 5314 5319 5324 5329 5334 5339 5344 5350 5355 5360 5367 5376 5383 5388 5393 5400 5405 5409 5414 5418 5421 5425 5430 5435 5441 5445 5449 5453 5457 5461 5465 5468 5472 5475 5479 5484 5488 5492 5496 5500 5504 5508 5512 5515 5518 5522 5526 5530 5533 5536 5539 5543 5545 5548 5551 5555 5558 5561 5564 5567 5570 5573 5576 5578 5581
5272 5276 5280 5283 5286 5290 5294 5298 5302 5306 5311 5315 5320 5325 5329 5335 5340 5345 5349 5355 5362 5369 5374 5380 5388 5393 5397 5402 5406 5409 5414 5418 5424 5430 5434 5439 5443 5447 5451 5455 5459 5463 5466 5470 5474 5478 5482 5486 5490 5494 5498 5502 5505 5509 5513 5516 5520 5523 5527 5530 5533 5537 5540 5543 5546 5549 5551 5554 5558 5561 5564 5567 5570 5572
5269 5272 5276 5278 5282 5285 5289 5293 5296 5300 5303 5307 5311 5316 5320 5325 5329 5333 5337 5343 5349 5355 5361 5367 5373 5379 5385 5391 5395 5399 5403 5406 5411 5417 5422 5427 5433 5437 5442 5446 5450 5453 5456 5460 5464 5468 5472 5476 5480 5484 5488 5492 5496 5500 5503 5506 5510 5513 5517 5520 5524 5527 5531 5534 5536 5539 5542 5545 5548 5552 5555 5558 5560 5563
5266 5268 5271 5274 5277 5281 5285 5288 5291 5294 5297 5301 5304 5308 5311 5315 5318 5322 5326 5331 5337 5343 5348 5352 5358 5365 5372 5378 5384 5388 5391 5394 5398 5404 5409 5416 5423 5429 5433 5436 5440 5443 5446 5449 5452 5457 5461 5466 5469 5474 5477 5481 5485 5489 5492 5496 5499 5503 5506 5510 5514 5518 5522 5524 5526 5529 5532 5535 5539 5542 5545 5548 5551 5554
5262 5265 5267 5270 5273 5276 5280 5282 5285 5288 5291 5294 5298 5301 5303 5306 5309 5313 5317 5321 5326 5331 5336 5339 5344 5352 5358 5364 5371 5376 5378 5382 5388 5396 5402 5408 5413 5417 5421 5424 5427 5430 5434 5438 5441 5445 5450 5455 5459 5463 5467 5470 5475 5478 5482 5485 5489 5493 5496 5500 5504 5508 5511 5513 5516 5519 5522 5526 5529 5532 5535 5538 5542 5545
5259 5262 5264 5267 5269 5272 5275 5277 5280 5283 5285 5288 5291 5294 5296 5299 5302 5305 5309 5312 5316 5321 5325 5328 5333 5338 5344 5351 5358 5363 5368 5374 5382 5388 5391 5395 5400 5404 5407 5410 5414 5419 5423 5427 5431 5434 5438 5443 5448 5452 5456 5460 5464 5468 5471 5475 5479 5482 5485 5489 5494 5497 5500 5502 5505 5508 5512 5515 5518 5522 5525 5529 5532 5536
5256 5259 5261 5263 5266 5268 5270 5273 5275 5278 5280 5283 5285 5287 5290 5292 5295 5298 5301 5304 5308 5311 5315 5319 5322 5327 5333 5339 5346 5352 5358 5365 5370 5373 5377 5382 5387 5390 5393 5398 5403 5408 5413 5417 5422 5426 5429 5432 5436 5440 5445 5450 5453 5456 5460 5464 5468 5471 5474 5478 5483 5486 5488 5490 5493 5497 5501 5504 5508 5511 5515 5518 5522 5526
5253 5256 5258 5260 5262 5264 5266 5268 5271 5273 5275 5277 5280 5282 5284 5286 5289 5291 5294 5298 5301 5304 5307 5310 5313 5317 5324 5330 5334 5340 5346 5351 5355 5359 5365 5370 5373 5377 5382 5388 5393 5398 5401 5405 5409 5414 5418 5421 5425 5429 5434 5438 5441 5445 5449 5453 5456 5459 5462 5467 5471 5473 5475 5478 5482 5486 5490 5494 5497 5501 5504 5508 5512 5515
5250 5252 5254 5256 5258 5260 5262 5263 5266 5268 5270 5272 5274 5276 5279 5281 5283 5286 5288 5292 5294 5297 5300 5303 5305 5310 5316 5320 5323 5328 5333 5338 5342 5346 5351 5356 5360 5366 5371 5377 5382 5386 5388 5391 5395 5400 5405 5409 5414 5418 5423 5426 5429 5433 5437 5440 5443 5446 5450 5455 5459 5461 5463 5467 5471 5475 5479 5483 5487 5491 5494 5497 5501 5505
5248 5249 5251 5253 5254 5256 5257 5259 5260 5262 5264 5265 5267 5270 5272 5274 5277 5279 5282 5285 5288 5291 5294 5296 5300 5304 5307 5310 5314 5318 5321 5325 5328 5332 5338 5343 5348 5354 5360 5366 5370 5372 5374 5378 5382 5387 5392 5397 5401 5407 5411 5414 5417 5421 5424 5427 5431 5434 5438 5442 5446 5449 5452 5456 5460 5464 5468 5472 5476 5480 5483 5487 5490 5494
5246 5247 5248 5250 5251 5252 5253 5255 5256 5257 5258 5260 5261 5263 5266 5268 5271 5273 5275 5278 5281 5284 5287 5290 5294 5297 5299 5301 5305 5307 5309 5312 5316 5321 5327 5331 5335 5340 5346 5351 5353 5357 5362 5366 5370 5375 5381 5386 5390 5395 5399 5402 5406 5409 5412 5415 5418 5421 5425 5430 5434 5438 5441 5445 5449 5453 5457 5461 5465 5468 5472 5476 5479 5483
5244 5245 5245 5246 5247 5248 5249 5250 5251 5252 5253 5254 5256 5258 5260 5262 5264 5267 5269 5271 5274 5277 5280 5283 5287 5289 5291 5293 5296 5298 5300 5303 5307 5311 5315 5317 5321 5326 5332 5337 5341 5347 5353 5357 5359 5365 5371 5375 5380 5384 5387 5390 5394 5398 5401 5404 5407 5410 5414 5419 5423 5427 5430 5434 5438 5441 5445 5449 5453 5457 5460 5464 5467 5471
5241 5241 5242 5242 5243 5243 5244 5245 5245 5246 5247 5248 5250 5253 5255 5256 5258 5261 5264 5265 5267 5270 5273 5276 5278 5280 5282 5285 5288 5291 5294 5296 5299 5301 5302 5306 5311 5317 5322 5328 5334 5339 5344 5347 5350 5355 5360 5364 5368 5372 5375 5379 5382 5386 5390 5394 5396 5400 5404 5408 5412 5416 5419 5423 5427 5430 5434 5437 5441 5445 5448 5452 5455 5458
5237 5237 5237 5238 5238 5238 5239 5238 5238 5238 5239 5241 5244 5246 5248 5250 5253 5256 5258 5259 5261 5264 5266 5268 5270 5272 5274 5277 5280 5283 5286 5289 5290 5292 5296 5300 5305 5309 5313 5319 5324 5329 5332 5336 5339 5343 5347 5352 5356 5360 5363 5367 5371 5374 5379 5382 5385 5389 5393 5396 5400 5404 5408 5411 5415 5418 5422 5426 5430 5434 5437 5440 5443 5446
5234 5234 5234 5233 5233 5233 5233 5231 5230 5230 5230 5232 5235 5238 5241 5243 5247 5250 5252 5254 5256 5258 5260 5262 5263 5265 5267 5269 5272 5275 5279 5281 5283 5287 5291 5295 5297 5301 5305 5310 5313 5316 5320 5325 5328 5331 5336 5341 5345 5347 5351 5355 5359 5363 5367 5371 5373 5377 5381 5385 5388 5392 5396 5400 5403 5406 5410 5414 5417 5421 5425 5428 5430 5433
5230 5229 5228 5227 5226 5226 5225 5224 5222 5222 5221 5223 5227 5230 5232 5236 5241 5244 5246 5248 5251 5253 5255 5256 5257 5259 5260 5262 5264 5268 5271 5274 5278 5282 5285 5287 5290 5294 5298 5300 5302 5307 5312 5317 5318 5320 5325 5329 5331 5334 5338 5342 5346 5350 5355 5358 5361 5364 5368 5371 5375 5379 5383 5387 5391 5394 5398 5401 5405 5409 5412 5415 5418 5421
5225 5223 5221 5219 5217 5215 5214 5214 5214 5214 5213 5214 5218 5222 5225 5230 5235 5238 5239 5242 5245 5248 5250 5251 5252 5253 5255 5256 5259 5262 5264 5268 5272 5275 5277 5279 5283 5286 5288 5290 5294 5300 5305 5307 5307 5309 5313 5316 5318 5321 5325 5328 5332 5337 5341 5345 5348 5351 5354 5358 5362 5365 5369 5374 5378 5383 5387 5390 5393 5396 5399 5403 5406 5410
5219 5217 5213 5210 5207 5205 5203 5203 5204 5205 5206 5208 5211 5214 5220 5225 5228 5230 5233 5236 5239 5242 5245 5247 5249 5250 5251 5253 5255 5257 5260 5263 5266 5268 5269 5272 5275 5277 5278 5282 5286 5290 5294 5295 5296 5298 5302 5305 5307 5311 5313 5316 5320 5325 5329 5332 5336 5339 5342 5346 5349 5352 5355 5360 5365 5369 5373 5376 5379 5383 5387 5391 5394 5397
5215 5212 5207 5203 5199 5197 5195 5195 5196 5198 5199 5202 5205 5210 5214 5218 5220 5223 5227 5231 5234 5238 5241 5244 5246 5248 5249 5251 5252 5254 5256 5258 5260 5261 5263 5265 5266 5268 5269 5272 5276 5280 5284 5285 5286 5288 5292 5295 5298 5301 5303 5306 5310 5314 5317 5320 5324 5328 5331 5334 5337 5339 5342 5346 5350 5354 5358 5362 5365 5369 5373 5376 5380 5383
5212 5208 5203 5198 5194 5191 5190 5190 5190 5192 5195 5198 5201 5206 5209 5212 5214 5218 5223 5227 5231 5235 5238 5241 5243 5245 5247 5248 5249 5251 5252 5253 5255 5255 5256 5257 5259 5260 5262 5264 5267 5270 5273 5274 5276 5279 5282 5285 5289 5292 5294 5297 5300 5303 5307 5310 5312 5315 5318 5321 5323 5326 5329 5333 5336 5340 5344 5347 5351 5355 5358 5362 5366 5369
5209 5204 5199 5195 5191 5188 5186 5186 5187 5189 5191 5195 5198 5202 5205 5208 5211 5215 5219 5224 5229 5232 5235 5238 5240 5242 5243 5245 5246 5247 5248 5248 5250 5250 5251 5252 5253 5254 5255 5257 5258 5261 5262 5264 5266 5269 5271 5275 5279 5281 5284 5287 5290 5293 5297 5298 5300 5303 5305 5308 5311 5314 5317 5321 5324 5327 5330 5334 5337 5340 5344 5348 5352 5355
5207 5203 5198 5194 5191 5187 5185 5185 5185 5187 5190 5193 5196 5199 5202 5205 5208 5213 5218 5222 5226 5229 5232 5235 5236 5238 5239 5241 5242 5242 5243 5243 5245 5246 5246 5247 5247 5248 5249 5250 5251 5253 5254 5255 5257 5260 5262 5265 5268 5271 5274 5277 5280 5283 5286 5287 5290 5292 5294 5297 5300 5303 5306 5310 5313 5315 5318 5321 5324 5327 5331 5334 5338 5341
5207 5203 5199 5195 5192 5189 5186 5185 5185 5187 5189 5192 5195 5198 5200 5203 5207 5212 5217 5221 5224 5227 5229 5231 5233 5234 5235 5236 5237 5238 5238 5239 5239 5240 5241 5241 5241 5242 5243 5244 5245 5246 5248 5249 5250 5252 5254 5256 5259 5261 5264 5267 5270 5274 5276 5278 5281 5283 5285 5287 5290 5292 5295 5299 5301 5303 5306 5309 5312 5316 5318 5322 5325 5328
5206 5203 5200 5197 5194 5191 5189 5187 5187 5188 5190 5192 5195 5198 5200 5204 5208 5212 5215 5219 5222 5224 5226 5228 5229 5231 5231 5232 5233 5234 5234 5235 5235 5236 5236 5236 5236 5236 5236 5237 5238 5240 5241 5243 5244 5246 5247 5249 5251 5253 5255 5258 5261 5264 5266 5268 5271 5273 5275 5277 5278 5281 5284 5287 5289 5291 5294 5297 5301 5305 5307 5310 5312 5315
5205 5204 5202 5200 5197 5195 5193 5192 5191 5191 5192 5194 5197 5199 5202 5205 5208 5211 5214 5217 5219 5222 5223 5225 5226 5227 5228 5229 5230 5230 5231 5231 5232 5232 5232 5232 5232 5232 5232 5232 5232 5233 5235 5236 5238 5239 5240 5241 5243 5245 5247 5250 5252 5254 5257 5260 5262 5263 5264 5265 5267 5270 5273 5276 5278 5280 5283 5286 5290 5293 5296 5298 5300 5303
5205 5204 5203 5202 5200 5199 5197 5196 5195 5195 5196 5197 5199 5201 5203 5206 5208 5211 5213 5216 5218 5220 5221 5222 5224 5225 5225 5226 5227 5227 5228 5228 5228 5228 5228 5228 5228 5228 5228 5228 5228 5229 5230 5230 5231 5233 5234 5235 5237 5239 5241 5243 5245 5247 5249 5251 5253 5253 5254 5255 5258 5261 5263 5266 5267 5269 5272 5276 5280 5282 5284 5287 5289 5291
5206 5205 5204 5203 5202 5201 5200 5200 5199 5199 5199 5200 5202 5204 5205 5207 5209 5211 5213 5215 5217 5218 5219 5220 5221 5222 5222 5223 5223 5224 5224 5224 5224 5224 5224 5224 5224 5224 5224 5224 5224 5225 5225 5226 5227 5228 5229 5231 5232 5234 5235 5237 5238 5240 5242 5244 5244 5245 5245 5247 5251 5253 5254 5255 5256 5259 5262 5266 5270 5271 5273 5276 5277 5279
5206 5205 5204 5204 5203 5203 5202 5202 5202 5202 5203 5203 5204 5206 5207 5208 5210 5211 5213 5214 5215 5216 5217 5217 5218 5219 5219 5219 5219 5220 5220 5220 5220 5220 5220 5220 5220 5220 5220 5220 5220 5220 5221 5222 5223 5224 5225 5226 5228 5229 5230 5231 5233 5234 5236 5237 5237 5237 5239 5241 5243 5244 5244 5245 5247 5250 5254 5257 5259 5262 5264 5266 5267 5268
5206 5206 5205 5205 5204 5204 5203 5203 5203 5204 5204 5205 5206 5206 5207 5208 5209 5210 5211 5212 5213 5213 5214 5215 5215 5215 5216 5216 5216 5216 5217 5217 5217 5217 5217 5216 5217 5217 5217 5217 5217 5218 5218 5218 5219 5220 5221 5222 5223 5224 5225 5226 5227 5229 5230 5230 5230 5231 5233 5234 5235 5235 5236 5237 5240 5243 5245 5247 5249 5252 5255 5257 5258 5258
5206 5206 5206 5206 5205 5205 5205 5205 5205 5205 5205 5206 5206 5207 5207 5208 5209 5209 5210 5211 5211 5212 5212 5213 5213 5213 5213 5214 5214 5214 5214 5214 5214 5214 5214 5214 5214 5214 5214 5215 5215 5215 5215 5215 5216 5216 5217 5218 5218 5219 5220 5221 5222 5223 5223 5223 5224 5226 5227 5228 5228 5228 5229 5231 5234 5236 5236 5237 5240 5243 5246 5249 5251 5250
5207 5207 5207 5206 5206 5206 5206 5206 5206 5206 5206 5206 5207 5207 5208 5208 5209 5209 5210 5210 5210 5211 5211 5211 5211 5211 5211 5211 5211 5211 5211 5211 5211 5211 5211 5211 5211 5211 5211 5212 5212 5212 5212 5212 5213 5213 5213 5214 5214 5215 5215 5216 5217 5218 5217 5218 5220 5221 5221 5221 5222 5222 5224 5225 5227 5228 5229 5230 5232 5235 5237 5241 5244 5243
5209 5208 5207 5207 5207 5207 5207 5207 5207 5207 5207 5207 5207 5208 5208 5208 5209 5209 5209 5210 5210 5210 5210 5210 5210 5210 5210 5210 5209 5209 5209 5209 5209 5208 5208 5208 5208 5208 5208 5208 5208 5208 5209 5209 5209 5209 5209 5210 5210 5210 5210 5211 5212 5212 5213 5213 5215 5215 5215 5215 5215 5216 5217 5219 5220 5221 5222 5222 5224 5227 5230 5233 5236 5236
5210 5210 5209 5208 5208 5208 5208 5208 5208 5208 5208 5208 5208 5208 5208 5208 5209 5209 5209 5209 5209 5209 5209 5209 5209 5208 5208 5208 5207 5207 5207 5206 5206 5206 5206 5205 5205 5205 5205 5205 5205 5205 5205 5205 5205 5205 5205 5205 5205 5205 5206 5207 5207 5207 5208 5208 5209 5209 5209 5209 5209 5210 5211 5213 5214 5215 5215 5215 5217 5220 5223 5225 5227 5228
5212 5211 5210 5210 5209 5209 5208 5208 5208 5208 5208 5208 5208 5208 5208 5208 5208 5208 5208 5208 5208 5208 5208 5207 5207 5207 5206 5206 5205 5205 5205 5204 5204 5203 5203 5203 5202 5202 5202 5202 5201 5201 5201 5201 5201 5200 5200 5200 5201 5202 5202 5202 5202 5202 5203 5204 5204 5203 5202 5202 5204 5205 5205 5206 5207 5208 5209 5209 5210 5212 5215 5216 5217 5219
5212 5211 5211 5210 5210 5209 5209 5208 5208 5208 5208 5208 5208 5207 5207 5207 5207 5207 5207 5207 5207 5206 5206 5206 5205 5205 5204 5204 5203 5203 5202 5202 5201 5201 5200 5200 5199 5199 5199 5198 5197 5197 5197 5196 5196 5196 5196 5196 5197 5197 5196 5196 5197 5197 5198 5198 5198 5197 5196 5196 5197 5198 5199 5200 5200 5201 5202 5203 5204 5205 5207 5207 5208 5211
5212 5211 5211 5210 5210 5210 5209 5208 5208 5208 5208 5208 5207 5207 5207 5207 5207 5207 5207 5206 5206 5205 5205 5204 5204 5203 5202 5202 5201 5200 5200 5199 5198 5198 5197 5196 5196 5195 5194 5194 5193 5193 5192 5192 5191 5191 5191 5191 5191 5191 5191 5191 5191 5192 5192 5192 5192 5191 5191 5190 5190 5191 5191 5192 5193 5194 5195 5197 5197 5197 5198 5198 5199 5202
5212 5211 5211 5210 5210 5210 5209 5209 5209 5208 5208 5208 5207 5207 5207 5207 5206 5206 5206 5205 5205 5204 5203 5203 5202 5201 5200 5200 5199 5198 5197 5196 5195 5194 5193 5192 5191 5191 5190 5189 5188 5188 5187 5186 5186 5186 5186 5185 5185 5186 5185 5185 5185 5185 5186 5186 5186 5186 5185 5185 5184 5184 5183 5183 5184 5186 5188 5189 5189 5188 5189 5190 5191 5193
5211 5211 5211 5210 5210 5210 5210 5209 5209 5209 5208 5208 5208 5207 5207 5206 5206 5205 5205 5204 5203 5202 5201 5201 5200 5199 5198 5197 5195 5194 5194 5192 5191 5190 5189 5188 5187 5186 5184 5184 5183 5182 5181 5181 5180 5180 5179 5179 5179 5180 5179 5178 5178 5178 5179 5179 5179 5179 5179 5178 5178 5176 5175 5174 5175 5176 5178 5179 5178 5177 5178 5181 5182 5183